Flag for China Weather past 2 weeks in Shanghai, Shanghai Municipality, China

Now
70 °F

Partly sunny.


Feels Like: 70 °F
Forecast: 69 / 82 °F
Wind: 6 mph from North

Location: Shanghai Hongqiao Airport

Current Time: May 28, 2015 at 8:19:34 AM

Latest Report: May 28, 2015 at 7:30 AM


Visibility: 4 mi

Pressure: 29.65 "Hg

Humidity: 94%

Dew point: 68 °F

Location of ShanghaiLocation

Historic Weather in Shanghai — Graph

°F

Shanghai temperature yesterday

Maximum temperature yesterday: 77 °F (at 11:00 AM)
Minimum temperature yesterday: 68 °F (at 10:30 PM)
Average temperature yesterday: 72 °F

Past Weeks' High & Low Weather Summary

 TemperatureHumidityPressure
High84 °F (May 13, 11:30 AM)100% (May 15, 1:30 PM)30.07 "Hg (May 15, 1:30 PM)
Low59 °F (May 21, 2:30 AM)24% (May 17, 1:00 PM)29.59 "Hg (May 18, 3:30 AM)
Average72 °F69%29.80 "Hg
* Reported May 13 7:00 AM — May 28 7:00 AM, Shanghai, Weather by CustomWeather, © 2015

Note: Actual official high and low records may vary slightly from our data, if they occured in-between our weather recording intervals... More about our weather records

Advertising

Shanghai weather history for previous 24 hours

 ConditionsComfort  
Time TempWeatherWind HumidityBarometerVisibility
7:00 AM
Thu, May 28
70 °FPartly sunny.3 mph94%29.65 "Hg4 mi
6:30 AM70 °FFog.3 mph94%29.65 "Hg3 mi
6:00 AM68 °FFog.3 mph100%29.65 "Hg2 mi
5:30 AM68 °FFog.3 mph100%29.62 "Hg2 mi
5:00 AM68 °FFog.6 mph94%29.62 "Hg3 mi
4:30 AM68 °FFog.6 mph94%29.62 "Hg3 mi
4:00 AM68 °FFog.6 mph94%29.62 "Hg3 mi
3:30 AM68 °FFog.6 mph94%29.62 "Hg3 mi
3:00 AM68 °FFog.6 mph94%29.62 "Hg2 mi
2:30 AM68 °FFog.6 mph94%29.62 "Hg3 mi
2:00 AM68 °FPassing clouds.6 mph94%29.62 "Hg4 mi
1:30 AM68 °FPassing clouds.8 mph94%29.62 "HgN/A
1:00 AM68 °FPassing clouds.6 mph94%29.65 "HgN/A
12:30 AM68 °FPassing clouds.3 mph94%29.65 "HgN/A
12:00 AM68 °FPassing clouds.3 mph94%29.65 "HgN/A
11:30 PM
Wed, May 27
68 °FPassing clouds.3 mph94%29.65 "HgN/A
11:00 PM68 °FPassing clouds.6 mph94%29.65 "HgN/A
10:30 PM68 °FPassing clouds.6 mph94%29.65 "HgN/A
10:00 PM70 °FPassing clouds.6 mph88%29.65 "HgN/A
9:30 PM70 °FPassing clouds.8 mph88%29.65 "HgN/A
9:00 PM70 °FPassing clouds.10 mph88%29.65 "HgN/A
8:30 PM70 °FLight rain. Passing clouds.6 mph88%29.68 "HgN/A
8:00 PM70 °FLight rain. Mostly cloudy.6 mph94%29.65 "Hg4 mi
7:30 PM70 °FSprinkles. Fog.10 mph94%29.65 "Hg2 mi
7:00 PM70 °FRain showers. Fog.10 mph94%29.65 "Hg1 mi
6:30 PM72 °FSprinkles. Fog.8 mph88%29.65 "Hg2 mi
6:00 PM70 °FLight rain. Fog.8 mph94%29.65 "Hg2 mi
5:30 PM72 °FRain. Fog.8 mph88%29.65 "Hg2 mi
5:00 PM72 °FLight rain. Mostly cloudy.8 mph88%29.65 "Hg4 mi
4:30 PM73 °FPartly sunny.10 mph78%29.65 "HgN/A
4:00 PM75 °FPartly sunny.10 mph74%29.65 "HgN/A
3:30 PM75 °FLight rain. Partly sunny.10 mph74%29.65 "HgN/A
3:00 PM77 °FPartly sunny.10 mph69%29.65 "HgN/A
2:30 PM77 °FPartly sunny.13 mph69%29.65 "HgN/A
2:00 PM77 °FPartly sunny.13 mph69%29.68 "HgN/A
1:30 PM77 °FPartly sunny.13 mph65%29.68 "HgN/A
1:00 PM77 °FPartly sunny.13 mph65%29.68 "HgN/A
12:30 PM77 °FPartly sunny.13 mph65%29.71 "HgN/A
11:30 AM77 °FScattered clouds.15 mph65%29.71 "HgN/A
11:00 AM77 °FScattered clouds.10 mph65%29.71 "HgN/A
10:30 AM75 °FPartly sunny.13 mph69%29.74 "HgN/A
10:00 AM73 °FPartly sunny.10 mph74%29.74 "HgN/A
9:30 AM72 °FPartly sunny.10 mph78%29.74 "HgN/A
9:00 AM72 °FScattered clouds.8 mph78%29.77 "HgN/A
8:30 AM70 °FPassing clouds.10 mph83%29.77 "HgN/A
8:00 AM70 °FPassing clouds.8 mph83%29.77 "HgN/A
Weather by CustomWeather, © 2015

See weather overviewHow to use our weather pages